Home > Weather > Villeurbanne > Past weeks

Flag for France Weather for the Past 2 Weeks in Villeurbanne, Rhône-Alpes, France

Now
45 °F

Mostly cloudy.


Feels Like: 39 °F
Forecast: 42 / 49 °F
Wind: 12 mph from Northwest

Location: Lyon / Bron

Current Time: Apr 30, 2016 at 11:34:40 PM

Latest Report: Apr 30, 2016 at 11:00 PM


Visibility: N/A

Pressure: 30.07 "Hg

Humidity: 87%

Dew Point: 41 °F

Location of VilleurbanneLocation

Historic Weather in Villeurbanne — Graph

°F

Villeurbanne Temperature Yesterday

Maximum temperature yesterday: 63 °F (at 4:30 PM)
Minimum temperature yesterday: 36 °F (at 6:00 AM)
Average temperature yesterday: 51 °F

High & Low Weather Summary for the Past Weeks

 TemperatureHumidityPressure
High72 °F (Apr 16, 3:30 PM)100% (Apr 17, 3:30 PM)30.27 "Hg (Apr 17, 3:30 PM)
Low36 °F (Apr 29, 6:00 AM)31% (Apr 28, 2:30 PM)29.62 "Hg (Apr 16, 6:00 PM)
Average52 °F67%29.99 "Hg
* Reported Apr 15 10:30 PM — Apr 30 10:30 PM, Villeurbanne, Weather by CustomWeather, © 2016

Note: Actual official high and low records may vary slightly from our data, if they occured in-between our weather recording intervals... More about our weather records

Advertising

Villeurbanne Weather History for the Previous 24 Hours

Scroll right to see more
 ConditionsComfort  
Time TempWeatherWind HumidityBarometerVisibility
10:30 PM
Sat, Apr 30
45 °FLight rain. Mostly cloudy.10 mph87%30.07 "HgN/A
10:00 PM45 °FLight rain. Mostly cloudy.3 mph93%30.07 "HgN/A
9:30 PM45 °FRain. Fog.8 mph93%30.07 "Hg3 mi
9:00 PM45 °FRain. Fog.12 mph93%30.04 "Hg3 mi
8:30 PM45 °FRain. Mostly cloudy.15 mph87%30.04 "HgN/A
8:00 PM50 °FCool.3 mph71%30.01 "HgN/A
7:30 PM52 °FCool.5 mph67%30.01 "HgN/A
7:00 PM52 °FSunny.5 mph67%30.01 "Hg10 mi
6:30 PM52 °FPassing clouds.5 mph62%30.01 "HgN/A
6:00 PM52 °FPassing clouds.6 mph67%30.01 "HgN/A
5:30 PM52 °FSunny.6 mph67%30.01 "Hg10 mi
5:00 PM52 °FPassing clouds.8 mph67%30.01 "HgN/A
4:30 PM52 °FLight rain. Mostly cloudy.8 mph72%30.01 "HgN/A
4:00 PM52 °FMostly cloudy.9 mph72%30.01 "HgN/A
3:30 PM50 °FOvercast.8 mph76%30.01 "HgN/A
3:00 PM48 °FLight rain. Mostly cloudy.15 mph87%30.01 "HgN/A
2:30 PM48 °FLight rain. Mostly cloudy.13 mph87%30.04 "HgN/A
2:00 PM50 °FLight rain. Cloudy.8 mph82%30.01 "HgN/A
1:30 PM50 °FRain. Mostly cloudy.9 mph82%30.04 "HgN/A
1:00 PM50 °FLight rain. Overcast.12 mph82%30.01 "HgN/A
12:30 PM54 °FLight rain. Mostly cloudy.15 mph63%30.01 "HgN/A
12:00 PM57 °FRefreshingly cool.2 mph55%29.98 "HgN/A
11:30 AM57 °FSunny.1 mph51%29.98 "Hg10 mi
11:00 AM57 °FSunny.No wind51%29.98 "Hg10 mi
10:30 AM55 °FSunny.2 mph55%29.98 "Hg10 mi
10:00 AM54 °FPassing clouds.5 mph58%29.98 "HgN/A
9:30 AM52 °FSunny.3 mph62%29.98 "Hg10 mi
9:00 AM50 °FSunny.No wind67%29.98 "Hg10 mi
8:30 AM48 °FSunny.1 mph71%29.98 "Hg10 mi
8:00 AM45 °FSunny.No wind81%29.98 "Hg10 mi
7:30 AM43 °FSunny.No wind81%29.98 "Hg10 mi
7:00 AM41 °FClear.1 mph87%29.98 "Hg10 mi
6:30 AM41 °FClear.2 mph87%29.98 "Hg10 mi
6:00 AM41 °FClear.No wind87%29.98 "Hg10 mi
5:30 AM41 °FClear.No wind87%29.98 "Hg10 mi
5:00 AM43 °FClear.No wind81%29.98 "Hg10 mi
4:30 AM43 °FClear.2 mph81%30.01 "Hg10 mi
4:00 AM43 °FClear.2 mph81%29.98 "Hg10 mi
3:30 AM43 °FClear.3 mph81%29.98 "Hg10 mi
3:00 AM43 °FClear.2 mph81%30.01 "Hg10 mi
2:30 AM43 °FClear.2 mph81%30.01 "Hg10 mi
1:30 AM45 °FClear.No wind81%30.01 "Hg10 mi
1:00 AM46 °FClear.No wind71%30.01 "Hg10 mi
12:30 AM46 °FClear.1 mph76%30.01 "Hg10 mi
12:00 AM46 °FClear.No wind71%30.01 "Hg10 mi
11:30 PM
Fri, Apr 29
48 °FClear.2 mph66%30.01 "Hg10 mi
11:00 PM50 °FClear.No wind62%30.01 "Hg10 mi
Weather by CustomWeather, © 2016

See weather overviewHow to use our weather pages